Starlink 5062

operational
NORAD ID: 55637 Int'l Des: 2023-021 Owner: SPXS Country: US Constellation: starlink
LEOCIRCULAR

About Starlink 5062

Description loading...

Live Position

Loading 3D Globe...

Upcoming Passes

Altitude History

Altitude vs Time

uPlot chart will show altitude changes over time

Two-Line Element Set

1 55637U 23021K 25351.54161402 .00001141 00000-0 10346-3 0 9997
2 55637 70.0003 31.6938 0003332 268.8470 91.2308 14.98320864156486
Epoch: Dec 17, 2025 • Age: 18 hours

Current Status

Altitude 583.6 km
Velocity 7.57 km/s
Sub-Earth Point 59.41°N, 22.06°W
Launch Date Feb 17, 2023
Age 2.8 years
Type internet

Technical Details

Classification Payload
Mass 305.00 kg
Dry Mass 290.00 kg
Total Mass 305.00 kg
Length 0.20 m
Diameter 2.80 m
Span 9.00 m
Shape Box + pan
Manufacturer SPXS
Bus Type Starlink
Phase Status In Orbit
Owner/State SPXS/US

Large Constellations

Loading constellations...